Main page
METAR-TAF:

METAR-TAF

Airports :

Kinloss, Scotland

RAF Kinloss

latitude: 57-39N, longitude: 003-34W, elevation: 7 m

Current weather observation

The report was made 1 hour and 10 minutes ago, at 13:50 UTC
Wind 15 kt from the Southwest
Temperature 3°C
Humidity 75%
Pressure 1002 hPa
Visibility 10 km or more

METAR: EGQK 241350Z AUTO 23015KT 9999 NCD 03/M01 Q1002

Time: 15:00 (15:00 UTC)


TAF: missing

Weather observations and forecasts of more than 4000 airports (METAR and TAF reports).

The available stations are represented by yellow and red dots on the map.

Hover mouse over dot to see the name of the station.

Then click to see weather observations and forecasts.

To change the map : click on the green buttons with a black cross to zoom in, on the green button with a dash to zoom out, or on the green arrows for adjacent maps.


METAR-TAF: